Time,TemperatureF,DewpointF,PressureIn,WindDirection,WindDirectionDegrees,WindSpeedMPH,WindSpeedGustMPH,Humidity,HourlyPrecipIn,Conditions,Clouds,dailyrainin,SolarRadiationWatts/m^2,SoftwareType,DateUTC
2013-01-07 00:00:00,47.6,31.3,30.28,NNE,22,2.0,6.0,53,0.00,,SCT,0.00,0.00,VWS V14.01,2013-01-07 05:00:00,
2013-01-07 00:08:00,42.2,36.5,30.31,SSW,192,4.0,13.0,80,0.00,,SCT,0.00,0.00,VWS V14.01,2013-01-07 05:08:00,
2013-01-07 00:16:00,42.2,36.5,30.31,SSW,192,4.0,13.0,80,0.00,,SCT,0.00,0.00,VWS V14.01,2013-01-07 05:16:00,
2013-01-07 00:21:00,42.2,36.5,30.31,SSW,192,4.0,13.0,80,0.00,,SCT,0.00,0.00,VWS V14.01,2013-01-07 05:21:00,
2013-01-07 00:26:00,42.2,36.5,30.31,SSW,192,4.0,13.0,80,0.00,,SCT,0.00,0.00,VWS V14.01,2013-01-07 05:26:00,
2013-01-07 00:33:00,42.2,36.5,30.31,SSW,192,4.0,13.0,80,0.00,,SCT,0.00,0.00,VWS V14.01,2013-01-07 05:33:00,
2013-01-07 00:39:00,42.2,36.5,30.31,SSW,192,4.0,13.0,80,0.00,,SCT,0.00,0.00,VWS V14.01,2013-01-07 05:39:00,
2013-01-07 00:46:00,42.2,36.5,30.31,SSW,192,4.0,13.0,80,0.00,,SCT,0.00,0.00,VWS V14.01,2013-01-07 05:46:00,
2013-01-07 00:52:00,42.2,36.5,30.31,SSW,192,4.0,13.0,80,0.00,,SCT,0.00,0.00,VWS V14.01,2013-01-07 05:52:00,
2013-01-07 00:57:00,42.2,36.5,30.31,SSW,192,4.0,13.0,80,0.00,,SCT,0.00,0.00,VWS V14.01,2013-01-07 05:57:00,
2013-01-07 01:00:00,46.8,32.0,30.29,NE,45,2.0,6.0,56,0.00,,SCT,0.00,0.00,VWS V14.01,2013-01-07 06:00:00,
2013-01-07 01:02:00,42.2,36.5,30.31,SSW,192,4.0,13.0,80,0.00,,SCT,0.00,0.00,VWS V14.01,2013-01-07 06:02:00,
2013-01-07 01:10:00,42.2,36.5,30.31,SSW,192,4.0,13.0,80,0.00,,SCT,0.00,0.00,VWS V14.01,2013-01-07 06:10:00,
2013-01-07 01:23:00,42.2,36.5,30.31,SSW,192,4.0,13.0,80,0.00,,SCT,0.00,0.00,VWS V14.01,2013-01-07 06:23:00,
2013-01-07 01:28:00,42.2,36.5,30.31,SSW,192,4.0,13.0,80,0.00,,SCT,0.00,0.00,VWS V14.01,2013-01-07 06:28:00,
2013-01-07 01:34:00,42.2,36.5,30.31,SSW,192,4.0,13.0,80,0.00,,SCT,0.00,0.00,VWS V14.01,2013-01-07 06:34:00,
2013-01-07 01:39:00,42.2,36.5,30.31,SSW,192,4.0,13.0,80,0.00,,SCT,0.00,0.00,VWS V14.01,2013-01-07 06:39:00,
2013-01-07 01:46:00,42.2,36.5,30.31,SSW,192,4.0,13.0,80,0.00,,SCT,0.00,0.00,VWS V14.01,2013-01-07 06:46:00,
2013-01-07 01:52:00,42.2,36.5,30.31,SSW,192,4.0,13.0,80,0.00,,SCT,0.00,0.00,VWS V14.01,2013-01-07 06:52:00,
2013-01-07 01:57:00,42.2,36.5,30.31,SSW,192,4.0,13.0,80,0.00,,SCT,0.00,0.00,VWS V14.01,2013-01-07 06:57:00,
2013-01-07 02:00:00,46.4,32.4,30.31,NNE,22,1.0,4.0,58,0.00,,SCT,0.00,0.00,VWS V14.01,2013-01-07 07:00:00,
2013-01-07 02:03:00,42.2,36.5,30.31,SSW,192,4.0,13.0,80,0.00,,SCT,0.00,0.00,VWS V14.01,2013-01-07 07:03:00,
2013-01-07 02:08:00,42.2,36.5,30.31,SSW,192,4.0,13.0,80,0.00,,SCT,0.00,0.00,VWS V14.01,2013-01-07 07:08:00,
2013-01-07 02:13:00,42.2,36.5,30.31,SSW,192,4.0,13.0,80,0.00,,SCT,0.00,0.00,VWS V14.01,2013-01-07 07:13:00,
2013-01-07 02:18:00,42.2,36.5,30.31,SSW,192,4.0,13.0,80,0.00,,SCT,0.00,0.00,VWS V14.01,2013-01-07 07:18:00,
2013-01-07 02:26:00,42.2,36.5,30.31,SSW,192,4.0,13.0,80,0.00,,SCT,0.00,0.00,VWS V14.01,2013-01-07 07:26:00,
2013-01-07 02:33:00,42.2,36.5,30.31,SSW,192,4.0,13.0,80,0.00,,SCT,0.00,0.00,VWS V14.01,2013-01-07 07:33:00,
2013-01-07 02:38:00,42.2,36.5,30.31,SSW,192,4.0,13.0,80,0.00,,SCT,0.00,0.00,VWS V14.01,2013-01-07 07:38:00,
2013-01-07 02:44:00,42.2,36.5,30.31,SSW,192,4.0,13.0,80,0.00,,SCT,0.00,0.00,VWS V14.01,2013-01-07 07:44:00,
2013-01-07 02:49:00,42.2,36.5,30.31,SSW,192,4.0,13.0,80,0.00,,SCT,0.00,0.00,VWS V14.01,2013-01-07 07:49:00,
2013-01-07 02:54:00,42.2,36.5,30.31,SSW,192,4.0,13.0,80,0.00,,SCT,0.00,0.00,VWS V14.01,2013-01-07 07:54:00,
2013-01-07 03:00:00,42.2,36.5,30.31,SSW,192,4.0,13.0,80,0.00,,SCT,0.00,0.00,VWS V14.01,2013-01-07 08:00:00,
2013-01-07 03:05:00,42.2,36.5,30.31,SSW,192,4.0,13.0,80,0.00,,SCT,0.00,0.00,VWS V14.01,2013-01-07 08:05:00,
2013-01-07 03:10:00,42.2,36.5,30.31,SSW,192,4.0,13.0,80,0.00,,SCT,0.00,0.00,VWS V14.01,2013-01-07 08:10:00,
2013-01-07 03:15:00,42.2,36.5,30.31,SSW,192,4.0,13.0,80,0.00,,SCT,0.00,0.00,VWS V14.01,2013-01-07 08:15:00,
2013-01-07 03:20:00,42.2,36.5,30.31,SSW,192,4.0,13.0,80,0.00,,SCT,0.00,0.00,VWS V14.01,2013-01-07 08:20:00,
2013-01-07 03:29:00,42.2,36.5,30.31,SSW,192,4.0,13.0,80,0.00,,SCT,0.00,0.00,VWS V14.01,2013-01-07 08:29:00,
2013-01-07 03:35:00,42.2,36.5,30.31,SSW,192,4.0,13.0,80,0.00,,SCT,0.00,0.00,VWS V14.01,2013-01-07 08:35:00,
2013-01-07 03:40:00,42.2,36.5,30.31,SSW,192,4.0,13.0,80,0.00,,SCT,0.00,0.00,VWS V14.01,2013-01-07 08:40:00,
2013-01-07 03:45:00,42.2,36.5,30.31,SSW,192,4.0,13.0,80,0.00,,SCT,0.00,0.00,VWS V14.01,2013-01-07 08:45:00,
2013-01-07 03:55:00,42.2,36.5,30.31,SSW,192,4.0,13.0,80,0.00,,SCT,0.00,0.00,VWS V14.01,2013-01-07 08:55:00,
2013-01-07 04:00:00,45.9,31.5,30.36,ESE,112,4.0,10.0,57,0.00,,SCT,0.00,0.00,VWS V14.01,2013-01-07 09:00:00,
2013-01-07 04:02:00,42.2,36.5,30.31,SSW,192,4.0,13.0,80,0.00,,SCT,0.00,0.00,VWS V14.01,2013-01-07 09:02:00,
2013-01-07 04:07:00,42.2,36.5,30.31,SSW,192,4.0,13.0,80,0.00,,SCT,0.00,0.00,VWS V14.01,2013-01-07 09:07:00,
2013-01-07 04:13:00,42.2,36.5,30.31,SSW,192,4.0,13.0,80,0.00,,SCT,0.00,0.00,VWS V14.01,2013-01-07 09:13:00,
2013-01-07 04:29:00,42.2,36.5,30.31,SSW,192,4.0,13.0,80,0.00,,SCT,0.00,0.00,VWS V14.01,2013-01-07 09:29:00,
2013-01-07 04:36:00,42.2,36.5,30.31,SSW,192,4.0,13.0,80,0.00,,SCT,0.00,0.00,VWS V14.01,2013-01-07 09:36:00,
2013-01-07 04:41:00,42.2,36.5,30.31,SSW,192,4.0,13.0,80,0.00,,SCT,0.00,0.00,VWS V14.01,2013-01-07 09:41:00,
2013-01-07 04:46:00,42.2,36.5,30.31,SSW,192,4.0,13.0,80,0.00,,SCT,0.00,0.00,VWS V14.01,2013-01-07 09:46:00,
2013-01-07 04:51:00,42.2,36.5,30.31,SSW,192,4.0,13.0,80,0.00,,SCT,0.00,0.00,VWS V14.01,2013-01-07 09:51:00,
2013-01-07 04:57:00,42.2,36.5,30.31,SSW,192,4.0,13.0,80,0.00,,SCT,0.00,0.00,VWS V14.01,2013-01-07 09:57:00,
2013-01-07 05:00:00,44.8,32.6,30.37,ESE,112,1.0,7.0,62,0.00,,SCT,0.00,0.00,VWS V14.01,2013-01-07 10:00:00,
2013-01-07 05:02:00,42.2,36.5,30.31,SSW,192,4.0,13.0,80,0.00,,SCT,0.00,0.00,VWS V14.01,2013-01-07 10:02:00,
2013-01-07 05:08:00,42.2,36.5,30.31,SSW,192,4.0,13.0,80,0.00,,SCT,0.00,0.00,VWS V14.01,2013-01-07 10:08:00,
2013-01-07 05:19:00,42.2,36.5,30.31,SSW,192,4.0,13.0,80,0.00,,SCT,0.00,0.00,VWS V14.01,2013-01-07 10:19:00,
2013-01-07 05:24:00,42.2,36.5,30.31,SSW,192,4.0,13.0,80,0.00,,SCT,0.00,0.00,VWS V14.01,2013-01-07 10:24:00,
2013-01-07 05:30:00,42.2,36.5,30.31,SSW,192,4.0,13.0,80,0.00,,SCT,0.00,0.00,VWS V14.01,2013-01-07 10:30:00,
2013-01-07 05:35:00,42.2,36.5,30.31,SSW,192,4.0,13.0,80,0.00,,SCT,0.00,0.00,VWS V14.01,2013-01-07 10:35:00,
2013-01-07 05:43:00,42.2,36.5,30.31,SSW,192,4.0,13.0,80,0.00,,SCT,0.00,0.00,VWS V14.01,2013-01-07 10:43:00,
2013-01-07 05:51:00,42.2,36.5,30.31,SSW,192,4.0,13.0,80,0.00,,SCT,0.00,0.00,VWS V14.01,2013-01-07 10:51:00,
2013-01-07 05:57:00,42.2,36.5,30.31,SSW,192,4.0,13.0,80,0.00,,SCT,0.00,0.00,VWS V14.01,2013-01-07 10:57:00,
2013-01-07 06:00:00,44.0,31.4,30.40,SE,135,0.0,4.0,61,0.00,,SCT,0.00,0.00,VWS V14.01,2013-01-07 11:00:00,
2013-01-07 06:02:00,42.2,36.5,30.31,SSW,192,4.0,13.0,80,0.00,,SCT,0.00,0.00,VWS V14.01,2013-01-07 11:02:00,
2013-01-07 06:08:00,42.2,36.5,30.31,SSW,192,4.0,13.0,80,0.00,,SCT,0.00,0.00,VWS V14.01,2013-01-07 11:08:00,
2013-01-07 06:16:00,42.2,36.5,30.31,SSW,192,4.0,13.0,80,0.00,,SCT,0.00,0.00,VWS V14.01,2013-01-07 11:16:00,
2013-01-07 06:21:00,42.2,36.5,30.31,SSW,192,4.0,13.0,80,0.00,,SCT,0.00,0.00,VWS V14.01,2013-01-07 11:21:00,
2013-01-07 06:26:00,42.2,36.5,30.31,SSW,192,4.0,13.0,80,0.00,,SCT,0.00,0.00,VWS V14.01,2013-01-07 11:26:00,
2013-01-07 06:31:00,42.2,36.5,30.31,SSW,192,4.0,13.0,80,0.00,,SCT,0.00,0.00,VWS V14.01,2013-01-07 11:31:00,
2013-01-07 06:37:00,42.2,36.5,30.31,SSW,192,4.0,13.0,80,0.00,,SCT,0.00,0.00,VWS V14.01,2013-01-07 11:37:00,
2013-01-07 06:42:00,42.2,36.5,30.31,SSW,192,4.0,13.0,80,0.00,,SCT,0.00,0.00,VWS V14.01,2013-01-07 11:42:00,
2013-01-07 06:47:00,42.2,36.5,30.31,SSW,192,4.0,13.0,80,0.00,,SCT,0.00,0.00,VWS V14.01,2013-01-07 11:47:00,
2013-01-07 06:57:00,42.2,36.5,30.31,SSW,192,4.0,13.0,80,0.00,,SCT,0.00,0.00,VWS V14.01,2013-01-07 11:57:00,
2013-01-07 07:00:00,43.1,31.4,30.44,ESE,112,3.0,9.0,63,0.00,,SCT,0.00,0.00,VWS V14.01,2013-01-07 12:00:00,
2013-01-07 07:02:00,42.2,36.5,30.31,SSW,192,4.0,13.0,80,0.00,,SCT,0.00,0.00,VWS V14.01,2013-01-07 12:02:00,
2013-01-07 07:07:00,42.2,36.5,30.31,SSW,192,4.0,13.0,80,0.00,,SCT,0.00,0.00,VWS V14.01,2013-01-07 12:07:00,
2013-01-07 07:12:00,42.2,36.5,30.31,SSW,192,4.0,13.0,80,0.00,,SCT,0.00,0.00,VWS V14.01,2013-01-07 12:12:00,
2013-01-07 07:18:00,42.2,36.5,30.31,SSW,192,4.0,13.0,80,0.00,,SCT,0.00,0.00,VWS V14.01,2013-01-07 12:18:00,
2013-01-07 07:24:00,42.2,36.5,30.31,SSW,192,4.0,13.0,80,0.00,,SCT,0.00,0.00,VWS V14.01,2013-01-07 12:24:00,
2013-01-07 07:29:00,42.2,36.5,30.31,SSW,192,4.0,13.0,80,0.00,,SCT,0.00,0.00,VWS V14.01,2013-01-07 12:29:00,
2013-01-07 07:34:00,42.2,36.5,30.31,SSW,192,4.0,13.0,80,0.00,,SCT,0.00,0.00,VWS V14.01,2013-01-07 12:34:00,
2013-01-07 07:41:00,42.2,36.5,30.31,SSW,192,4.0,13.0,80,0.00,,SCT,0.00,0.00,VWS V14.01,2013-01-07 12:41:00,
2013-01-07 07:46:00,42.2,36.5,30.31,SSW,192,4.0,13.0,80,0.00,,SCT,0.00,0.00,VWS V14.01,2013-01-07 12:46:00,
2013-01-07 07:57:00,42.2,36.5,30.31,SSW,192,4.0,13.0,80,0.00,,SCT,0.00,0.00,VWS V14.01,2013-01-07 12:57:00,
2013-01-07 08:00:00,42.0,31.5,30.48,SE,135,0.0,2.0,66,0.00,,SCT,0.00,4.00,VWS V14.01,2013-01-07 13:00:00,
2013-01-07 08:02:00,42.2,36.5,30.31,SSW,192,4.0,13.0,80,0.00,,SCT,0.00,0.00,VWS V14.01,2013-01-07 13:02:00,
2013-01-07 08:10:00,42.2,36.5,30.31,SSW,192,4.0,13.0,80,0.00,,SCT,0.00,0.00,VWS V14.01,2013-01-07 13:10:00,
2013-01-07 08:17:00,42.2,36.5,30.31,SSW,192,4.0,13.0,80,0.00,,SCT,0.00,0.00,VWS V14.01,2013-01-07 13:17:00,
2013-01-07 08:24:00,42.2,36.5,30.31,SSW,192,4.0,13.0,80,0.00,,SCT,0.00,0.00,VWS V14.01,2013-01-07 13:24:00,
2013-01-07 08:32:00,42.2,36.5,30.31,SSW,192,4.0,13.0,80,0.00,,SCT,0.00,0.00,VWS V14.01,2013-01-07 13:32:00,
2013-01-07 08:41:00,42.2,36.5,30.31,SSW,192,4.0,13.0,80,0.00,,SCT,0.00,0.00,VWS V14.01,2013-01-07 13:41:00,
2013-01-07 08:48:00,42.2,36.5,30.31,SSW,192,4.0,13.0,80,0.00,,SCT,0.00,0.00,VWS V14.01,2013-01-07 13:48:00,
2013-01-07 08:53:00,42.2,36.5,30.31,SSW,192,4.0,13.0,80,0.00,,SCT,0.00,0.00,VWS V14.01,2013-01-07 13:53:00,
2013-01-07 08:58:00,42.2,36.5,30.31,SSW,192,4.0,13.0,80,0.00,,SCT,0.00,0.00,VWS V14.01,2013-01-07 13:58:00,
2013-01-07 09:00:00,41.8,29.4,30.52,NNW,338,1.0,6.0,61,0.00,,SCT,0.00,92.00,VWS V14.01,2013-01-07 14:00:00,
2013-01-07 09:03:00,42.2,36.5,30.31,SSW,192,4.0,13.0,80,0.00,,SCT,0.00,0.00,VWS V14.01,2013-01-07 14:03:00,
2013-01-07 09:09:00,42.2,36.5,30.31,SSW,192,4.0,13.0,80,0.00,,SCT,0.00,0.00,VWS V14.01,2013-01-07 14:09:00,
2013-01-07 09:14:00,42.2,36.5,30.31,SSW,192,4.0,13.0,80,0.00,,SCT,0.00,0.00,VWS V14.01,2013-01-07 14:14:00,
2013-01-07 09:19:00,42.2,36.5,30.31,SSW,192,4.0,13.0,80,0.00,,SCT,0.00,0.00,VWS V14.01,2013-01-07 14:19:00,
2013-01-07 09:24:00,42.2,36.5,30.31,SSW,192,4.0,13.0,80,0.00,,SCT,0.00,0.00,VWS V14.01,2013-01-07 14:24:00,
2013-01-07 09:31:00,42.2,36.5,30.31,SSW,192,4.0,13.0,80,0.00,,SCT,0.00,0.00,VWS V14.01,2013-01-07 14:31:00,
2013-01-07 09:37:00,42.2,36.5,30.31,SSW,192,4.0,13.0,80,0.00,,SCT,0.00,0.00,VWS V14.01,2013-01-07 14:37:00,
2013-01-07 09:42:00,42.2,36.5,30.31,SSW,192,4.0,13.0,80,0.00,,SCT,0.00,0.00,VWS V14.01,2013-01-07 14:42:00,
2013-01-07 09:49:00,42.2,36.5,30.31,SSW,192,4.0,13.0,80,0.00,,SCT,0.00,0.00,VWS V14.01,2013-01-07 14:49:00,
2013-01-07 09:54:00,42.2,36.5,30.31,SSW,192,4.0,13.0,80,0.00,,SCT,0.00,0.00,VWS V14.01,2013-01-07 14:54:00,
2013-01-07 10:00:00,44.1,29.4,30.57,ESE,112,6.0,14.0,56,0.00,,SCT,0.00,258.00,VWS V14.01,2013-01-07 15:00:00,
2013-01-07 10:05:00,42.2,36.5,30.31,SSW,192,4.0,13.0,80,0.00,,SCT,0.00,0.00,VWS V14.01,2013-01-07 15:05:00,
2013-01-07 10:13:00,42.2,36.5,30.31,SSW,192,4.0,13.0,80,0.00,,SCT,0.00,0.00,VWS V14.01,2013-01-07 15:13:00,
2013-01-07 10:19:00,42.2,36.5,30.31,SSW,192,4.0,13.0,80,0.00,,SCT,0.00,0.00,VWS V14.01,2013-01-07 15:19:00,
2013-01-07 10:27:00,42.2,36.5,30.31,SSW,192,4.0,13.0,80,0.00,,SCT,0.00,0.00,VWS V14.01,2013-01-07 15:27:00,
2013-01-07 10:32:00,42.2,36.5,30.31,SSW,192,4.0,13.0,80,0.00,,SCT,0.00,0.00,VWS V14.01,2013-01-07 15:32:00,
2013-01-07 10:39:00,42.2,36.5,30.31,SSW,192,4.0,13.0,80,0.00,,SCT,0.00,0.00,VWS V14.01,2013-01-07 15:39:00,
2013-01-07 10:44:00,42.2,36.5,30.31,SSW,192,4.0,13.0,80,0.00,,SCT,0.00,0.00,VWS V14.01,2013-01-07 15:44:00,
2013-01-07 10:51:00,42.2,36.5,30.31,SSW,192,4.0,13.0,80,0.00,,SCT,0.00,0.00,VWS V14.01,2013-01-07 15:51:00,
2013-01-07 11:00:00,45.2,29.6,30.57,East,90,6.0,16.0,54,0.00,,SCT,0.00,374.00,VWS V14.01,2013-01-07 16:00:00,
2013-01-07 11:03:00,42.2,36.5,30.31,SSW,192,4.0,13.0,80,0.00,,SCT,0.00,0.00,VWS V14.01,2013-01-07 16:03:00,
2013-01-07 11:08:00,42.2,36.5,30.31,SSW,192,4.0,13.0,80,0.00,,SCT,0.00,0.00,VWS V14.01,2013-01-07 16:08:00,
2013-01-07 11:15:00,42.2,36.5,30.31,SSW,192,4.0,13.0,80,0.00,,SCT,0.00,0.00,VWS V14.01,2013-01-07 16:15:00,
2013-01-07 11:23:00,42.2,36.5,30.31,SSW,192,4.0,13.0,80,0.00,,SCT,0.00,0.00,VWS V14.01,2013-01-07 16:23:00,
2013-01-07 11:28:00,42.2,36.5,30.31,SSW,192,4.0,13.0,80,0.00,,SCT,0.00,0.00,VWS V14.01,2013-01-07 16:28:00,
2013-01-07 11:33:00,42.2,36.5,30.31,SSW,192,4.0,13.0,80,0.00,,SCT,0.00,0.00,VWS V14.01,2013-01-07 16:33:00,
2013-01-07 11:38:00,42.2,36.5,30.31,SSW,192,4.0,13.0,80,0.00,,SCT,0.00,0.00,VWS V14.01,2013-01-07 16:38:00,
2013-01-07 11:52:00,42.2,36.5,30.31,SSW,192,4.0,13.0,80,0.00,,SCT,0.00,0.00,VWS V14.01,2013-01-07 16:52:00,
2013-01-07 11:57:00,42.2,36.5,30.31,SSW,192,4.0,13.0,80,0.00,,SCT,0.00,0.00,VWS V14.01,2013-01-07 16:57:00,
2013-01-07 12:00:00,46.3,29.6,30.54,ESE,112,5.0,15.0,52,0.00,,SCT,0.00,448.00,VWS V14.01,2013-01-07 17:00:00,
2013-01-07 12:02:00,42.2,36.5,30.31,SSW,192,4.0,13.0,80,0.00,,SCT,0.00,0.00,VWS V14.01,2013-01-07 17:02:00,
2013-01-07 12:07:00,42.2,36.5,30.31,SSW,192,4.0,13.0,80,0.00,,SCT,0.00,0.00,VWS V14.01,2013-01-07 17:07:00,
2013-01-07 12:13:00,42.2,36.5,30.31,SSW,192,4.0,13.0,80,0.00,,SCT,0.00,0.00,VWS V14.01,2013-01-07 17:13:00,
2013-01-07 12:18:00,42.2,36.5,30.31,SSW,192,4.0,13.0,80,0.00,,SCT,0.00,0.00,VWS V14.01,2013-01-07 17:18:00,
2013-01-07 12:27:00,42.2,36.5,30.31,SSW,192,4.0,13.0,80,0.00,,SCT,0.00,0.00,VWS V14.01,2013-01-07 17:27:00,
2013-01-07 12:35:00,42.2,36.5,30.31,SSW,192,4.0,13.0,80,0.00,,SCT,0.00,0.00,VWS V14.01,2013-01-07 17:35:00,
2013-01-07 12:41:00,42.2,36.5,30.31,SSW,192,4.0,13.0,80,0.00,,SCT,0.00,0.00,VWS V14.01,2013-01-07 17:41:00,
2013-01-07 12:46:00,42.2,36.5,30.31,SSW,192,4.0,13.0,80,0.00,,SCT,0.00,0.00,VWS V14.01,2013-01-07 17:46:00,
2013-01-07 12:51:00,42.2,36.5,30.31,SSW,192,4.0,13.0,80,0.00,,SCT,0.00,0.00,VWS V14.01,2013-01-07 17:51:00,
2013-01-07 12:57:00,42.2,36.5,30.31,SSW,192,4.0,13.0,80,0.00,,SCT,0.00,0.00,VWS V14.01,2013-01-07 17:57:00,
2013-01-07 13:00:00,47.1,29.9,30.51,SSE,158,3.0,11.0,51,0.00,,SCT,0.00,472.00,VWS V14.01,2013-01-07 18:00:00,
2013-01-07 13:02:00,42.2,36.5,30.31,SSW,192,4.0,13.0,80,0.00,,SCT,0.00,0.00,VWS V14.01,2013-01-07 18:02:00,
2013-01-07 13:09:00,42.2,36.5,30.31,SSW,192,4.0,13.0,80,0.00,,SCT,0.00,0.00,VWS V14.01,2013-01-07 18:09:00,
2013-01-07 13:15:00,42.2,36.5,30.31,SSW,192,4.0,13.0,80,0.00,,SCT,0.00,0.00,VWS V14.01,2013-01-07 18:15:00,
2013-01-07 13:24:00,42.2,36.5,30.31,SSW,192,4.0,13.0,80,0.00,,SCT,0.00,0.00,VWS V14.01,2013-01-07 18:24:00,
2013-01-07 13:29:00,42.2,36.5,30.31,SSW,192,4.0,13.0,80,0.00,,SCT,0.00,0.00,VWS V14.01,2013-01-07 18:29:00,
2013-01-07 13:36:00,42.2,36.5,30.31,SSW,192,4.0,13.0,80,0.00,,SCT,0.00,0.00,VWS V14.01,2013-01-07 18:36:00,
2013-01-07 13:42:00,42.2,36.5,30.31,SSW,192,4.0,13.0,80,0.00,,SCT,0.00,0.00,VWS V14.01,2013-01-07 18:42:00,
2013-01-07 13:47:00,42.2,36.5,30.31,SSW,192,4.0,13.0,80,0.00,,SCT,0.00,0.00,VWS V14.01,2013-01-07 18:47:00,
2013-01-07 13:52:00,42.2,36.5,30.31,SSW,192,4.0,13.0,80,0.00,,SCT,0.00,0.00,VWS V14.01,2013-01-07 18:52:00,
2013-01-07 13:59:00,42.2,36.5,30.31,SSW,192,4.0,13.0,80,0.00,,SCT,0.00,0.00,VWS V14.01,2013-01-07 18:59:00,
2013-01-07 14:00:00,47.9,29.7,30.51,SW,225,3.0,9.0,49,0.00,,SCT,0.00,436.00,VWS V14.01,2013-01-07 19:00:00,
2013-01-07 14:04:00,42.2,36.5,30.31,SSW,192,4.0,13.0,80,0.00,,SCT,0.00,0.00,VWS V14.01,2013-01-07 19:04:00,
2013-01-07 14:10:00,42.2,36.5,30.31,SSW,192,4.0,13.0,80,0.00,,SCT,0.00,0.00,VWS V14.01,2013-01-07 19:10:00,
2013-01-07 14:15:00,42.2,36.5,30.31,SSW,192,4.0,13.0,80,0.00,,SCT,0.00,0.00,VWS V14.01,2013-01-07 19:15:00,
2013-01-07 14:20:00,42.2,36.5,30.31,SSW,192,4.0,13.0,80,0.00,,SCT,0.00,0.00,VWS V14.01,2013-01-07 19:20:00,
2013-01-07 14:26:00,42.2,36.5,30.31,SSW,192,4.0,13.0,80,0.00,,SCT,0.00,0.00,VWS V14.01,2013-01-07 19:26:00,
2013-01-07 14:31:00,42.2,36.5,30.31,SSW,192,4.0,13.0,80,0.00,,SCT,0.00,0.00,VWS V14.01,2013-01-07 19:31:00,
2013-01-07 14:38:00,42.2,36.5,30.31,SSW,192,4.0,13.0,80,0.00,,SCT,0.00,0.00,VWS V14.01,2013-01-07 19:38:00,
2013-01-07 14:43:00,42.2,36.5,30.31,SSW,192,4.0,13.0,80,0.00,,SCT,0.00,0.00,VWS V14.01,2013-01-07 19:43:00,
2013-01-07 14:52:00,42.2,36.5,30.31,SSW,192,4.0,13.0,80,0.00,,SCT,0.00,0.00,VWS V14.01,2013-01-07 19:52:00,
2013-01-07 14:57:00,42.2,36.5,30.31,SSW,192,4.0,13.0,80,0.00,,SCT,0.00,0.00,VWS V14.01,2013-01-07 19:57:00,
2013-01-07 15:00:00,49.0,30.2,30.51,SW,225,3.0,8.0,48,0.00,,SCT,0.00,352.00,VWS V14.01,2013-01-07 20:00:00,
2013-01-07 15:02:00,42.2,36.5,30.31,SSW,192,4.0,13.0,80,0.00,,SCT,0.00,0.00,VWS V14.01,2013-01-07 20:02:00,
2013-01-07 15:16:00,42.2,36.5,30.31,SSW,192,4.0,13.0,80,0.00,,SCT,0.00,0.00,VWS V14.01,2013-01-07 20:16:00,
2013-01-07 15:24:00,42.2,36.5,30.31,SSW,192,4.0,13.0,80,0.00,,SCT,0.00,0.00,VWS V14.01,2013-01-07 20:24:00,
2013-01-07 15:29:00,42.2,36.5,30.31,SSW,192,4.0,13.0,80,0.00,,SCT,0.00,0.00,VWS V14.01,2013-01-07 20:29:00,
2013-01-07 15:34:00,42.2,36.5,30.31,SSW,192,4.0,13.0,80,0.00,,SCT,0.00,0.00,VWS V14.01,2013-01-07 20:34:00,
2013-01-07 15:41:00,42.2,36.5,30.31,SSW,192,4.0,13.0,80,0.00,,SCT,0.00,0.00,VWS V14.01,2013-01-07 20:41:00,
2013-01-07 15:48:00,42.2,36.5,30.31,SSW,192,4.0,13.0,80,0.00,,SCT,0.00,0.00,VWS V14.01,2013-01-07 20:48:00,
2013-01-07 15:54:00,42.2,36.5,30.31,SSW,192,4.0,13.0,80,0.00,,SCT,0.00,0.00,VWS V14.01,2013-01-07 20:54:00,
2013-01-07 15:59:00,42.2,36.5,30.31,SSW,192,4.0,13.0,80,0.00,,SCT,0.00,0.00,VWS V14.01,2013-01-07 20:59:00,
2013-01-07 16:00:00,49.5,30.1,30.51,SE,135,1.0,6.0,47,0.00,,SCT,0.00,215.00,VWS V14.01,2013-01-07 21:00:00,
2013-01-07 16:06:00,42.2,36.5,30.31,SSW,192,4.0,13.0,80,0.00,,SCT,0.00,0.00,VWS V14.01,2013-01-07 21:06:00,
2013-01-07 16:11:00,42.2,36.5,30.31,SSW,192,4.0,13.0,80,0.00,,SCT,0.00,0.00,VWS V14.01,2013-01-07 21:11:00,
2013-01-07 16:16:00,42.2,36.5,30.31,SSW,192,4.0,13.0,80,0.00,,SCT,0.00,0.00,VWS V14.01,2013-01-07 21:16:00,
2013-01-07 16:21:00,42.2,36.5,30.31,SSW,192,4.0,13.0,80,0.00,,SCT,0.00,0.00,VWS V14.01,2013-01-07 21:21:00,
2013-01-07 16:28:00,42.2,36.5,30.31,SSW,192,4.0,13.0,80,0.00,,SCT,0.00,0.00,VWS V14.01,2013-01-07 21:28:00,
2013-01-07 16:33:00,42.2,36.5,30.31,SSW,192,4.0,13.0,80,0.00,,SCT,0.00,0.00,VWS V14.01,2013-01-07 21:33:00,
2013-01-07 16:39:00,42.2,36.5,30.31,SSW,192,4.0,13.0,80,0.00,,SCT,0.00,0.00,VWS V14.01,2013-01-07 21:39:00,
2013-01-07 16:44:00,42.2,36.5,30.31,SSW,192,4.0,13.0,80,0.00,,SCT,0.00,0.00,VWS V14.01,2013-01-07 21:44:00,
2013-01-07 16:49:00,42.2,36.5,30.31,SSW,192,4.0,13.0,80,0.00,,SCT,0.00,0.00,VWS V14.01,2013-01-07 21:49:00,
2013-01-07 16:57:00,42.2,36.5,30.31,SSW,192,4.0,13.0,80,0.00,,SCT,0.00,0.00,VWS V14.01,2013-01-07 21:57:00,
2013-01-07 17:00:00,49.0,31.2,30.52,WNW,292,3.0,6.0,50,0.00,,SCT,0.00,57.00,VWS V14.01,2013-01-07 22:00:00,
2013-01-07 17:03:00,42.2,36.5,30.31,SSW,192,4.0,13.0,80,0.00,,SCT,0.00,0.00,VWS V14.01,2013-01-07 22:03:00,
2013-01-07 17:10:00,42.2,36.5,30.31,SSW,192,4.0,13.0,80,0.00,,SCT,0.00,0.00,VWS V14.01,2013-01-07 22:10:00,
2013-01-07 17:17:00,42.2,36.5,30.31,SSW,192,4.0,13.0,80,0.00,,SCT,0.00,0.00,VWS V14.01,2013-01-07 22:17:00,
2013-01-07 17:22:00,42.2,36.5,30.31,SSW,192,4.0,13.0,80,0.00,,SCT,0.00,0.00,VWS V14.01,2013-01-07 22:22:00,
2013-01-07 17:27:00,42.2,36.5,30.31,SSW,192,4.0,13.0,80,0.00,,SCT,0.00,0.00,VWS V14.01,2013-01-07 22:27:00,
2013-01-07 17:33:00,42.2,36.5,30.31,SSW,192,4.0,13.0,80,0.00,,SCT,0.00,0.00,VWS V14.01,2013-01-07 22:33:00,
2013-01-07 17:42:00,42.2,36.5,30.31,SSW,192,4.0,13.0,80,0.00,,SCT,0.00,0.00,VWS V14.01,2013-01-07 22:42:00,
2013-01-07 17:48:00,42.2,36.5,30.31,SSW,192,4.0,13.0,80,0.00,,SCT,0.00,0.00,VWS V14.01,2013-01-07 22:48:00,
2013-01-07 17:54:00,42.2,36.5,30.31,SSW,192,4.0,13.0,80,0.00,,SCT,0.00,0.00,VWS V14.01,2013-01-07 22:54:00,
2013-01-07 18:00:00,42.2,36.5,30.31,SSW,192,4.0,13.0,80,0.00,,SCT,0.00,0.00,VWS V14.01,2013-01-07 23:00:00,
2013-01-07 18:06:00,42.2,36.5,30.31,SSW,192,4.0,13.0,80,0.00,,SCT,0.00,0.00,VWS V14.01,2013-01-07 23:06:00,
2013-01-07 18:12:00,42.2,36.5,30.31,SSW,192,4.0,13.0,80,0.00,,SCT,0.00,0.00,VWS V14.01,2013-01-07 23:12:00,
2013-01-07 18:17:00,42.2,36.5,30.31,SSW,192,4.0,13.0,80,0.00,,SCT,0.00,0.00,VWS V14.01,2013-01-07 23:17:00,
2013-01-07 18:24:00,42.2,36.5,30.31,SSW,192,4.0,13.0,80,0.00,,SCT,0.00,0.00,VWS V14.01,2013-01-07 23:24:00,
2013-01-07 18:32:00,42.2,36.5,30.31,SSW,192,4.0,13.0,80,0.00,,SCT,0.00,0.00,VWS V14.01,2013-01-07 23:32:00,
2013-01-07 18:37:00,42.2,36.5,30.31,SSW,192,4.0,13.0,80,0.00,,SCT,0.00,0.00,VWS V14.01,2013-01-07 23:37:00,
2013-01-07 18:42:00,42.2,36.5,30.31,SSW,192,4.0,13.0,80,0.00,,SCT,0.00,0.00,VWS V14.01,2013-01-07 23:42:00,
2013-01-07 18:49:00,42.2,36.5,30.31,SSW,192,4.0,13.0,80,0.00,,SCT,0.00,0.00,VWS V14.01,2013-01-07 23:49:00,
2013-01-07 18:54:00,42.2,36.5,30.31,SSW,192,4.0,13.0,80,0.00,,SCT,0.00,0.00,VWS V14.01,2013-01-07 23:54:00,
2013-01-07 19:00:00,45.0,31.1,30.55,West,270,5.0,12.0,58,0.00,,SCT,0.00,0.00,VWS V14.01,2013-01-08 00:00:00,
2013-01-07 19:01:00,42.2,36.5,30.31,SSW,192,4.0,13.0,80,0.00,,SCT,0.00,0.00,VWS V14.01,2013-01-08 00:01:00,
2013-01-07 19:11:00,42.2,36.5,30.31,SSW,192,4.0,13.0,80,0.00,,SCT,0.00,0.00,VWS V14.01,2013-01-08 00:11:00,
2013-01-07 19:16:00,42.2,36.5,30.31,SSW,192,4.0,13.0,80,0.00,,SCT,0.00,0.00,VWS V14.01,2013-01-08 00:16:00,
2013-01-07 19:21:00,42.2,36.5,30.31,SSW,192,4.0,13.0,80,0.00,,SCT,0.00,0.00,VWS V14.01,2013-01-08 00:21:00,
2013-01-07 19:26:00,42.2,36.5,30.31,SSW,192,4.0,13.0,80,0.00,,SCT,0.00,0.00,VWS V14.01,2013-01-08 00:26:00,
2013-01-07 19:32:00,42.2,36.5,30.31,SSW,192,4.0,13.0,80,0.00,,SCT,0.00,0.00,VWS V14.01,2013-01-08 00:32:00,
2013-01-07 19:40:00,42.2,36.5,30.31,SSW,192,4.0,13.0,80,0.00,,SCT,0.00,0.00,VWS V14.01,2013-01-08 00:40:00,
2013-01-07 19:48:00,42.2,36.5,30.31,SSW,192,4.0,13.0,80,0.00,,SCT,0.00,0.00,VWS V14.01,2013-01-08 00:48:00,
2013-01-07 19:54:00,42.2,36.5,30.31,SSW,192,4.0,13.0,80,0.00,,SCT,0.00,0.00,VWS V14.01,2013-01-08 00:54:00,
2013-01-07 20:00:00,43.6,31.9,30.56,SE,135,1.0,9.0,63,0.00,,SCT,0.00,0.00,VWS V14.01,2013-01-08 01:00:00,
2013-01-07 20:02:00,42.2,36.5,30.31,SSW,192,4.0,13.0,80,0.00,,SCT,0.00,0.00,VWS V14.01,2013-01-08 01:02:00,
2013-01-07 20:08:00,42.2,36.5,30.31,SSW,192,4.0,13.0,80,0.00,,SCT,0.00,0.00,VWS V14.01,2013-01-08 01:08:00,
2013-01-07 20:13:00,42.2,36.5,30.31,SSW,192,4.0,13.0,80,0.00,,SCT,0.00,0.00,VWS V14.01,2013-01-08 01:13:00,
2013-01-07 20:19:00,42.2,36.5,30.31,SSW,192,4.0,13.0,80,0.00,,SCT,0.00,0.00,VWS V14.01,2013-01-08 01:19:00,
2013-01-07 20:27:00,42.2,36.5,30.31,SSW,192,4.0,13.0,80,0.00,,SCT,0.00,0.00,VWS V14.01,2013-01-08 01:27:00,
2013-01-07 20:32:00,42.2,36.5,30.31,SSW,192,4.0,13.0,80,0.00,,SCT,0.00,0.00,VWS V14.01,2013-01-08 01:32:00,
2013-01-07 20:38:00,42.2,36.5,30.31,SSW,192,4.0,13.0,80,0.00,,SCT,0.00,0.00,VWS V14.01,2013-01-08 01:38:00,
2013-01-07 20:43:00,42.2,36.5,30.31,SSW,192,4.0,13.0,80,0.00,,SCT,0.00,0.00,VWS V14.01,2013-01-08 01:43:00,
2013-01-07 20:52:00,42.2,36.5,30.31,SSW,192,4.0,13.0,80,0.00,,SCT,0.00,0.00,VWS V14.01,2013-01-08 01:52:00,
2013-01-07 20:57:00,42.2,36.5,30.31,SSW,192,4.0,13.0,80,0.00,,SCT,0.00,0.00,VWS V14.01,2013-01-08 01:57:00,
2013-01-07 21:00:00,42.2,31.3,30.56,ESE,112,0.0,4.0,65,0.00,,SCT,0.00,0.00,VWS V14.01,2013-01-08 02:00:00,
2013-01-07 21:02:00,42.2,36.5,30.31,SSW,192,4.0,13.0,80,0.00,,SCT,0.00,0.00,VWS V14.01,2013-01-08 02:02:00,
2013-01-07 21:11:00,42.2,36.5,30.31,SSW,192,4.0,13.0,80,0.00,,SCT,0.00,0.00,VWS V14.01,2013-01-08 02:11:00,
2013-01-07 21:16:00,42.2,36.5,30.31,SSW,192,4.0,13.0,80,0.00,,SCT,0.00,0.00,VWS V14.01,2013-01-08 02:16:00,
2013-01-07 21:23:00,42.2,36.5,30.31,SSW,192,4.0,13.0,80,0.00,,SCT,0.00,0.00,VWS V14.01,2013-01-08 02:23:00,
2013-01-07 21:31:00,42.2,36.5,30.31,SSW,192,4.0,13.0,80,0.00,,SCT,0.00,0.00,VWS V14.01,2013-01-08 02:31:00,
2013-01-07 21:36:00,42.2,36.5,30.31,SSW,192,4.0,13.0,80,0.00,,SCT,0.00,0.00,VWS V14.01,2013-01-08 02:36:00,
2013-01-07 21:41:00,42.2,36.5,30.31,SSW,192,4.0,13.0,80,0.00,,SCT,0.00,0.00,VWS V14.01,2013-01-08 02:41:00,
2013-01-07 21:48:00,42.2,36.5,30.31,SSW,192,4.0,13.0,80,0.00,,SCT,0.00,0.00,VWS V14.01,2013-01-08 02:48:00,
2013-01-07 21:53:00,42.2,36.5,30.31,SSW,192,4.0,13.0,80,0.00,,SCT,0.00,0.00,VWS V14.01,2013-01-08 02:53:00,
2013-01-07 21:58:00,42.2,36.5,30.31,SSW,192,4.0,13.0,80,0.00,,SCT,0.00,0.00,VWS V14.01,2013-01-08 02:58:00,
2013-01-07 22:00:00,40.4,32.4,30.55,SE,135,0.0,2.0,73,0.00,,SCT,0.00,0.00,VWS V14.01,2013-01-08 03:00:00,
2013-01-07 22:13:00,42.2,36.5,30.31,SSW,192,4.0,13.0,80,0.00,,SCT,0.00,0.00,VWS V14.01,2013-01-08 03:13:00,
2013-01-07 22:18:00,42.2,36.5,30.31,SSW,192,4.0,13.0,80,0.00,,SCT,0.00,0.00,VWS V14.01,2013-01-08 03:18:00,
2013-01-07 22:23:00,42.2,36.5,30.31,SSW,192,4.0,13.0,80,0.00,,SCT,0.00,0.00,VWS V14.01,2013-01-08 03:23:00,
2013-01-07 22:28:00,42.2,36.5,30.31,SSW,192,4.0,13.0,80,0.00,,SCT,0.00,0.00,VWS V14.01,2013-01-08 03:28:00,
2013-01-07 22:33:00,42.2,36.5,30.31,SSW,192,4.0,13.0,80,0.00,,SCT,0.00,0.00,VWS V14.01,2013-01-08 03:33:00,
2013-01-07 22:39:00,42.2,36.5,30.31,SSW,192,4.0,13.0,80,0.00,,SCT,0.00,0.00,VWS V14.01,2013-01-08 03:39:00,
2013-01-07 22:45:00,42.2,36.5,30.31,SSW,192,4.0,13.0,80,0.00,,SCT,0.00,0.00,VWS V14.01,2013-01-08 03:45:00,
2013-01-07 22:52:00,42.2,36.5,30.31,SSW,192,4.0,13.0,80,0.00,,SCT,0.00,0.00,VWS V14.01,2013-01-08 03:52:00,
2013-01-07 22:59:00,42.2,36.5,30.31,SSW,192,4.0,13.0,80,0.00,,SCT,0.00,0.00,VWS V14.01,2013-01-08 03:59:00,
2013-01-07 23:00:00,37.7,30.8,30.55,SE,135,0.0,2.0,76,0.00,,SCT,0.00,0.00,VWS V14.01,2013-01-08 04:00:00,
2013-01-07 23:04:00,42.2,36.5,30.31,SSW,192,4.0,13.0,80,0.00,,SCT,0.00,0.00,VWS V14.01,2013-01-08 04:04:00,
2013-01-07 23:09:00,42.2,36.5,30.31,SSW,192,4.0,13.0,80,0.00,,SCT,0.00,0.00,VWS V14.01,2013-01-08 04:09:00,
2013-01-07 23:14:00,42.2,36.5,30.31,SSW,192,4.0,13.0,80,0.00,,SCT,0.00,0.00,VWS V14.01,2013-01-08 04:14:00,
2013-01-07 23:19:00,42.2,36.5,30.31,SSW,192,4.0,13.0,80,0.00,,SCT,0.00,0.00,VWS V14.01,2013-01-08 04:19:00,
2013-01-07 23:24:00,42.2,36.5,30.31,SSW,192,4.0,13.0,80,0.00,,SCT,0.00,0.00,VWS V14.01,2013-01-08 04:24:00,
2013-01-07 23:30:00,42.2,36.5,30.31,SSW,192,4.0,13.0,80,0.00,,SCT,0.00,0.00,VWS V14.01,2013-01-08 04:30:00,
2013-01-07 23:43:00,42.2,36.5,30.31,SSW,192,4.0,13.0,80,0.00,,SCT,0.00,0.00,VWS V14.01,2013-01-08 04:43:00,
2013-01-07 23:53:00,42.2,36.5,30.31,SSW,192,4.0,13.0,80,0.00,,SCT,0.00,0.00,VWS V14.01,2013-01-08 04:53:00,